Satellite: RS-30
Catalog number: 32953
Epoch time:      11069.38749899
Element set:     538
Inclination:      082.4985 deg
RA of node:       224.1344 deg
Eccentricity:    0.0018228
Arg of perigee:   240.4050 deg
Mean anomaly:     119.5236 deg
Mean motion:   12.43010892 rev/day
Decay rate:        1.0e-07 rev/day^2
Epoch rev:           12681
Checksum:              294

Satellite: TACSAT-3
Catalog number: 35001
Epoch time:      11068.92613669
Element set:    0536
Inclination:      040.4546 deg
RA of node:       054.0615 deg
Eccentricity:    0.0022101
Arg of perigee:   196.5801 deg
Mean anomaly:     163.4301 deg
Mean motion:   15.45396442 rev/day
Decay rate:     1.9688e-04 rev/day^2
Epoch rev:           10170
Checksum:              274

Satellite: PHARMSAT
Catalog number: 35002
Epoch time:      11068.36628161
Element set:    0493
Inclination:      040.4688 deg
RA of node:       054.9183 deg
Eccentricity:    0.0024802
Arg of perigee:   195.1744 deg
Mean anomaly:     164.8343 deg
Mean motion:   15.45495646 rev/day
Decay rate:     1.4137e-04 rev/day^2
Epoch rev:           10164
Checksum:              295

Satellite: HAWKSAT1
Catalog number: 35003
Epoch time:      11068.97138317
Element set:    0540
Inclination:      040.4576 deg
RA of node:       033.7899 deg
Eccentricity:    0.0028281
Arg of perigee:   225.6415 deg
Mean anomaly:     134.2233 deg
Mean motion:   15.53574565 rev/day
Decay rate:     4.8176e-04 rev/day^2
Epoch rev:           10193
Checksum:              298

Satellite: CP6
Catalog number: 35004
Epoch time:      11069.21405614
Element set:     543
Inclination:      040.4590 deg
RA of node:       027.5709 deg
Eccentricity:    0.0025433
Arg of perigee:   232.1310 deg
Mean anomaly:     127.7225 deg
Mean motion:   15.56294191 rev/day
Decay rate:     6.3231e-04 rev/day^2
Epoch rev:           10201
Checksum:              246

Satellite: AEROCUB3
Catalog number: 35005
Epoch time:      11006.09222617
Element set:     610
Inclination:      040.4461 deg
RA of node:       021.7975 deg
Eccentricity:    0.0025578
Arg of perigee:   084.1677 deg
Mean anomaly:     280.7191 deg
Mean motion:   16.39196088 rev/day
Decay rate:  1.4049365e-01 rev/day^2
Epoch rev:            9254
Checksum:              305

Satellite: METEOR-M
Catalog number: 35865
Epoch time:      11069.20919084
Element set:     172
Inclination:      098.7205 deg
RA of node:       125.5662 deg
Eccentricity:    0.0002222
Arg of perigee:   337.6153 deg
Mean anomaly:     022.4895 deg
Mean motion:   14.21834844 rev/day
Decay rate:       1.76e-06 rev/day^2
Epoch rev:            7652
Checksum:              294

Satellite: RS-38
Catalog number: 35869
Epoch time:      11069.15080330
Element set:     181
Inclination:      098.7179 deg
RA of node:       125.5495 deg
Eccentricity:    0.0004260
Arg of perigee:   327.8404 deg
Mean anomaly:     032.2480 deg
Mean motion:   14.22001758 rev/day
Decay rate:       1.77e-06 rev/day^2
Epoch rev:            7652
Checksum:              295

/EX


_______________________________________________
Via the Keps mailing list courtesy of AMSAT-NA
http://amsat.org/mailman/listinfo/keps

--- ViaMAIL!/WC v1.60d
 * Origin: Chowdanet (401-724-4410) telnet://chowdanet.com  (1:323/120)